{"data":{"norad_id":65507,"intl_designator":"2025-198R","name":"STARLINK-35163","alt_names":[],"object_type":"PAYLOAD","status":"ACTIVE","operator":null,"country":"US","launch_date":"2025-09-05","launch_site_code":"AFETR","launch_vehicle":null,"mission":null,"orbit_class":"UNKNOWN","rcs_meters":null,"size_class":null,"mass_kg":null,"dimensions":null,"purposes":["comms"],"wikipedia_slug":null,"has_3d_model":false,"image_url":null,"decayed_at":null,"tle_current":{"epoch":"2026-09-20T21:34:45.003936Z","epoch_age_seconds":77535,"freshness":"FRESH","line1":"1 65507U 25198R   26263.89913199  .00020690  00000+0  62116-3 0  9991","line2":"2 65507  53.1563  81.7073 0001053  85.4501 274.6622 15.34432519 58544","mean_motion":15.34432519,"eccentricity":0.0001053,"inclination_deg":53.1563,"raan_deg":81.7073,"arg_perigee_deg":85.4501,"mean_anomaly_deg":274.6622,"bstar":0.00062116,"rev_number":5854,"period_min":93.845769179765,"perigee_km":461.88625829313,"apogee_km":463.32691889289,"semimajor_km":6840.743588593,"source":"CELESTRAK","updated_at":"2026-09-21T09:00:35.644346Z"}}}